Tracking 23610 objects as of 19-Sep-2021
HD Live streaming from Space Station
objects crossing your sky now

STARLINK-2548

Track STARLINK-2548 now!
10-day predictions
STARLINK-2548 is classified as:


NORAD ID: 48285
Int'l Code: 2021-036K
Perigee: 553.1 km
Apogee: 555.8 km
Inclination: 53.0 °
Period: 95.6 minutes
Semi major axis: 6925 km
RCS: Unknown
Launch date: April 29, 2021
Source: United States (US)
Launch site: AIR FORCE EASTERN TEST RANGE (AFETR)
aabbcc
Your satellite tracking list
Your tracking list is empty




NASA's NSSDC Master Catalog

Two Line Element Set (TLE):
1 48285U 21036K   21262.25001157  .00034266  00000-0  23098-2 0  9998
2 48285  53.0450 209.9569 0001923  69.7743 246.0091 15.06372348 22844
Source of the keplerian elements: AFSPC